This demonstration page uses our WeatherBlox Daily Observations layout. Learn more.

Left ArrowRight Arrow

39.12711, -84.51439

Hourly Observations for October 5, 2021

Temp ( °F °C ) Dew Point ( °F °C ) Humidity (%) Winds ( mph kmh ) Pressure ( in mb ) Visibility ( mi km ) Precip ( " mm )
12:06 am 00:06 Mostly Cloudy with Fog 63 17.2 63 17.2 100 100 Calm 30.03 1017 0 0 0.00 0.00
12:53 am 00:53 Mostly Cloudy with Fog 64 17.8 64 17.8 100 100 Calm 30.05 1018 0 0 0.00 0.00
1:25 am 01:25 Mostly Cloudy with Fog 64 17.8 64 17.8 100 100 Calm 30.05 1018 N/A 0.00 0.00
1:51 am 01:51 Mostly Cloudy with Fog 63 17 63 17 100 100 Calm 30.05 1018 0 0 0.00 0.00
1:53 am 01:53 Mostly Cloudy with Fog 63 17.2 63 17.2 100 100 Calm 30.05 1018 N/A 0.00 0.00
2:17 am 02:17 Mostly Cloudy with Fog 63 17.2 63 17.2 100 100 Calm 30.05 1018 0 0 0.00 0.00
2:53 am 02:53 Mostly Cloudy with Fog 63 17.2 63 17.2 100 100 Calm 30.06 1018 0 0 0.00 0.00
3:50 am 03:50 Mostly Cloudy with Fog 63 17 63 17 100 100 Calm 30.06 1018 N/A 0.00 0.00
3:53 am 03:53 Mostly Cloudy with Fog 62 16.7 62 16.7 100 100 Calm 30.06 1018 N/A 0.00 0.00
4:02 am 04:02 Mostly Cloudy with Fog 62 16.7 62 16.7 100 100 Calm 30.06 1018 0 0 0.00 0.00
4:53 am 04:53 Mostly Cloudy with Fog 61 16.1 61 16.1 100 100 Calm 30.06 1018 0 0 0.00 0.00
5:53 am 05:53 Mostly Cloudy with Fog 61 16.1 61 16.1 100 100 Calm 30.08 1019 0 0 0.00 0.00
6:30 am 06:30 Mostly Cloudy with Fog 61 16.1 61 16.1 100 100 NE 3 6 30.09 1019 1 1 0.00 0.00
6:38 am 06:38 Mostly Cloudy with Fog 61 16.1 61 16.1 100 100 NE 5 7 30.09 1019 0 0 0.00 0.00
6:53 am 06:53 Mostly Cloudy with Fog 61 16.1 61 16.1 100 100 ENE 3 6 30.09 1019 0 0 0.00 0.00
7:53 am 07:53 Mostly Cloudy with Fog 61 16.1 61 16.1 100 100 Calm 30.11 1020 N/A 0.00 0.00
8:53 am 08:53 Mostly Cloudy with Fog 62 16.7 62 16.7 100 100 Calm 30.13 1020 0 0 0.00 0.00
9:48 am 09:48 Cloudy with Mist and Fog 63 17 63 17 100 100 Calm 30.14 1021 1 2 0.00 0.00
9:53 am 09:53 Cloudy with Mist and Fog 63 17.2 63 17.2 100 100 NNE 3 6 30.15 1021 1 2 0.00 0.00
10:23 am 10:23 Cloudy with Mist and Fog 64 17.8 64 17.8 100 100 NNE 5 7 30.15 1021 2 3 0.00 0.00
10:53 am 10:53 Cloudy with Mist and Fog 67 19.4 67 19.4 100 100 NNE 5 7 30.15 1021 6 10 0.00 0.00
11:11 am 11:11 Partly Cloudy 70 21.1 67 19.4 90 90 NE 7 11 30.15 1021 10 16 0.00 0.00
11:53 am 11:53 Sunny 74 23.3 67 19.4 79 79 NNE 7 11 30.15 1021 10 16 0.00 0.00
12:53 pm 12:53 Partly Cloudy 75 23.9 66 18.9 74 74 NE 6 9 30.14 1021 10 16 0.00 0.00
1:06 pm 13:06 Mostly Cloudy 75 23.9 67 19.4 76 76 NE 7 11 30.13 1020 10 16 0.00 0.00
1:14 pm 13:14 Mostly Cloudy 75 23.9 66 18.9 74 74 ENE 5 7 30.13 1020 10 16 0.00 0.00
1:53 pm 13:53 Partly Cloudy 78 25.6 66 18.9 67 67 VRB 6 9 30.12 1020 10 16 0.00 0.00
2:53 pm 14:53 Partly Cloudy 79 26.1 66 18.9 65 65 NNE 6 9 30.11 1020 10 16 0.00 0.00
3:53 pm 15:53 Cloudy 77 25 66 18.9 69 69 NE 6 9 30.10 1019 10 16 0.00 0.00
4:53 pm 16:53 Partly Cloudy 77 25 67 19.4 71 71 Calm 30.09 1019 10 16 0.00 0.00
5:53 pm 17:53 Mostly Sunny 79 26.1 66 18.9 65 65 E 6 9 30.10 1019 10 16 0.00 0.00
6:53 pm 18:53 Mostly Sunny 71 21.7 68 20 90 90 Calm 30.11 1020 10 16 0.00 0.00
7:53 pm 19:53 Clear 67 19.4 66 18.9 97 97 Calm 30.12 1020 10 16 0.00 0.00
8:53 pm 20:53 Mostly Cloudy 65 18.3 64 17.8 97 97 Calm 30.15 1021 10 16 0.00 0.00
9:53 pm 21:53 Mostly Cloudy 66 18.9 66 18.9 100 100 NNE 3 6 30.16 1021 10 16 0.00 0.00
10:53 pm 22:53 Mostly Cloudy 65 18.3 65 18.3 100 100 Calm 30.17 1022 10 16 0.00 0.00
11:53 pm 23:53 Mostly Cloudy 68 20 65 18.3 90 90 NE 6 9 30.16 1021 10 16 0.00 0.00

Powered by AerisWeather